Weather History for Pendleton, OR

Change the Weather History Date:

Tuesday, April 29, 2014

  Actual Average Record
Temperature  
Mean Temperature 52 °F 53 °F  
Max Temperature 71 °F 65 °F 91 °F (1926)
Min Temperature 33 °F 41 °F 25 °F (1907)
Degree Days  
Heating Degree Days 13 12  
Month to date heating degree days 405 420  
Since 1 July heating degree days 5271 4936  
Cooling Degree Days 0 0  
Month to date cooling degree days 0 0  
Year to date cooling degree days 0 0  
Growing Degree Days 2 (Base 50)    
Moisture  
Dew Point 29 °F    
Average Humidity 41    
Maximum Humidity 65    
Minimum Humidity 16    
Precipitation  
Precipitation 0.00 in 0.04 in 0.75 in (1915)
Month to date precipitation 1.02 1.16  
Year to date precipitation 5.64 5.02  
Snow  
Snow 0.00 in 0.00 in 0.00 in (2002)
Month to date snowfall 0.0 0.0  
Year to date snowfall 15.2 7.7  
Since 1 July snowfall 21.7 15.2  
Snow Depth 0.00 in    
Sea Level Pressure  
Sea Level Pressure 30.47 in    
Wind  
Wind Speed 6 mph (ENE)    
Max Wind Speed 14 mph    
Max Gust Speed 17 mph    
Visibility 10 miles    
Events      
T = Trace of Precipitation, MM = Missing Value Source: NWS Daily Summary

Daily Weather History Graph

Daily Weather History Graph

Search for Another Location

Airport:

Trip Planner

Search our weather history database for the weather conditions in past years. The results will help you decide how hot, cold, wet, or windy it might be!

Date:

Astronomy

Apr. 29, 2014 Rise Set
Actual Time 5:45 AM PDT 8:00 PM PDT
Civil Twilight 5:13 AM PDT 8:32 PM PDT
Nautical Twilight 4:32 AM PDT 9:13 PM PDT
Astronomical Twilight 3:47 AM PDT 9:59 PM PDT
Moon 6:07 AM PDT (4/29) 8:46 PM PDT (4/29)
Length of Visible Light 15h 19m
Length of Day
14h 14m
New Moon, 0% of the Moon is Illuminated
Apr 29
New Moon
May 6
First Quarter
May 14
Full
May 21
Last Quarter
May 28
New

Hourly Weather History & Observations

Time (PDT) Temp. Windchill Dew Point Humidity Pressure Visibility Wind Dir Wind Speed Gust Speed Precip Events Conditions
12:53 AM 39.0 °F 32.8 °F 30.9 °F 73% 30.41 in 10.0 mi East 9.2 mph - N/A   Clear
1:53 AM 37.0 °F 29.8 °F 30.0 °F 76% 30.42 in 10.0 mi East 10.4 mph - N/A   Clear
2:53 AM 37.0 °F 30.4 °F 28.9 °F 73% 30.43 in 10.0 mi East 9.2 mph - N/A   Clear
3:53 AM 36.0 °F 30.3 °F 28.9 °F 76% 30.45 in 10.0 mi ESE 6.9 mph - N/A   Clear
4:53 AM 35.1 °F 30.1 °F 28.0 °F 76% 30.46 in 10.0 mi ESE 5.8 mph - N/A   Clear
5:53 AM 35.1 °F 29.3 °F 28.0 °F 76% 30.48 in 10.0 mi East 6.9 mph - N/A   Clear
6:53 AM 39.9 °F 35.8 °F 30.9 °F 70% 30.50 in 10.0 mi East 5.8 mph - N/A   Clear
7:53 AM 46.0 °F - 30.0 °F 54% 30.52 in 10.0 mi Calm Calm - N/A   Clear
8:53 AM 53.1 °F - 30.9 °F 43% 30.53 in 10.0 mi North 3.5 mph - N/A   Clear
9:53 AM 59.0 °F - 30.0 °F 33% 30.53 in 10.0 mi Calm Calm - N/A   Clear
10:53 AM 61.0 °F - 28.0 °F 29% 30.53 in 10.0 mi Calm Calm - N/A   Clear
11:53 AM 64.9 °F - 26.1 °F 23% 30.53 in 10.0 mi North 3.5 mph - N/A   Clear
12:53 PM 66.9 °F - 19.0 °F 16% 30.51 in 10.0 mi Variable 5.8 mph - 0.00 in   Clear
1:53 PM 69.8 °F - 28.4 °F 21% 30.51 in 10.0 mi ENE 5.8 mph - N/A   Clear
2:53 PM 69.8 °F - 26.6 °F 20% 30.50 in 10.0 mi ENE 5.8 mph - N/A   Clear
3:53 PM 69.1 °F - 25.0 °F 19% 30.48 in 10.0 mi Variable 4.6 mph - N/A   Clear
4:53 PM 70.0 °F - 26.1 °F 19% 30.46 in 10.0 mi NE 8.1 mph - N/A   Clear
5:53 PM 69.1 °F - 26.1 °F 20% 30.45 in 10.0 mi NE 11.5 mph - N/A   Clear
6:53 PM 66.9 °F - 30.9 °F 26% 30.44 in 10.0 mi ENE 9.2 mph - N/A   Clear
7:53 PM 59.0 °F - 35.1 °F 41% 30.44 in 10.0 mi NNE 5.8 mph - N/A   Clear
8:53 PM 53.1 °F - 32.0 °F 45% 30.45 in 10.0 mi NNE 8.1 mph - N/A   Clear
9:53 PM 48.9 °F - 34.0 °F 56% 30.45 in 10.0 mi ESE 6.9 mph - N/A   Clear
10:53 PM 46.9 °F - 33.1 °F 59% 30.45 in 10.0 mi SE 5.8 mph - N/A   Clear
11:53 PM 46.0 °F 41.9 °F 35.1 °F 66% 30.45 in 10.0 mi East 8.1 mph - N/A   Clear